GW1010 Weather Reports


Display with metric or nautical units.
time (UTC)temp
F
wind
direction
speed
MPH
gust
MPH
rain 1hr
in
rain 24hr
in
rain mn
in
humidity
%
barometer
mb
20260503015027 59 233 1.0 7.0 0.00 0.00 0.00 75 1011.6
20260503014543 59 0 1.0 7.0 0.00 0.00 0.00 75 1011.5
20260503014028 60 255 1.0 6.0 0.00 0.00 0.00 74 1011.5
20260503013529 60 195 2.0 6.0 0.00 0.00 0.00 73 1011.5
20260503013051 61 326 1.0 6.0 0.00 0.00 0.00 72 1011.5
20260503012528 61 143 2.0 6.0 0.00 0.00 0.00 70 1011.4
20260503012027 62 0 1.0 6.0 0.00 0.00 0.00 69 1011.4
20260503011540 63 149 1.0 6.0 0.00 0.00 0.00 67 1011.5
20260503011036 64 167 1.0 6.0 0.00 0.00 0.00 66 1011.4
20260503010529 64 135 1.0 5.0 0.00 0.00 0.00 65 1011.3
20260503005528 65 147 1.0 6.0 0.00 0.00 0.00 64 1011.5
20260503005030 65 113 1.0 6.0 0.00 0.00 0.00 63 1011.5
20260503004543 66 246 1.0 7.0 0.00 0.00 0.00 63 1011.4
20260503004027 66 129 2.0 8.0 0.00 0.00 0.00 62 1011.4
20260503003527 67 131 2.0 8.0 0.00 0.00 0.00 62 1011.4
20260503003043 67 129 2.0 8.0 0.00 0.00 0.00 61 1011.4
20260503002527 67 243 2.0 8.0 0.00 0.00 0.00 61 1011.3
20260503002027 68 233 2.0 6.0 0.00 0.00 0.00 60 1011.3
20260503001601 68 245 1.0 6.0 0.00 0.00 0.00 60 1011.3
20260503001030 68 124 2.0 6.0 0.00 0.00 0.00 59 1011.5
20260503000528 68 134 2.0 8.0 0.00 0.00 0.00 60 1011.4
20260503000106 68 246 3.0 8.0 0.00 0.00 0.00 59 1011.4
20260502235527 69 217 1.0 7.0 0.00 0.00 0.00 59 1011.5
20260502235030 69 145 1.0 5.0 0.00 0.00 0.00 58 1011.4
20260502234546 69 155 2.0 8.0 0.00 0.00 0.00 59 1011.4
20260502234028 69 245 2.0 8.0 0.00 0.00 0.00 57 1011.4
20260502233528 69 240 2.0 6.0 0.00 0.00 0.00 58 1011.3
20260502233044 70 323 2.0 10.0 0.00 0.00 0.00 58 1011.4
20260502232529 70 129 2.0 10.0 0.00 0.00 0.00 58 1011.4
20260502232027 70 150 1.0 5.0 0.00 0.00 0.00 57 1011.4
20260502231544 70 152 2.0 6.0 0.00 0.00 0.00 57 1011.4
20260502231029 70 125 2.0 7.0 0.00 0.00 0.00 57 1011.4
20260502230529 70 101 2.0 8.0 0.00 0.00 0.00 57 1011.5
20260502230041 70 262 2.0 8.0 0.00 0.00 0.00 57 1011.5
20260502225530 70 125 1.0 8.0 0.00 0.00 0.00 58 1011.6
20260502225028 70 158 3.0 8.0 0.00 0.00 0.00 56 1011.7
20260502224543 71 78 2.0 8.0 0.00 0.00 0.00 57 1011.8
20260502224028 71 92 3.0 7.0 0.00 0.00 0.00 56 1011.9
20260502223531 70 122 2.0 7.0 0.00 0.00 0.00 57 1012.0
20260502223037 70 195 3.0 7.0 0.00 0.00 0.00 57 1012.1
20260502222531 70 227 2.0 5.0 0.00 0.00 0.00 56 1012.2
20260502222028 70 145 2.0 5.0 0.00 0.00 0.00 57 1012.3
20260502221546 70 121 1.0 9.0 0.00 0.00 0.00 58 1012.3
20260502221028 70 243 2.0 9.0 0.00 0.00 0.00 58 1012.4
20260502220526 69 277 2.0 9.0 0.00 0.00 0.00 60 1012.5
20260502220044 69 72 3.0 10.0 0.00 0.00 0.00 59 1012.7
20260502215529 69 218 3.0 11.0 0.00 0.00 0.00 59 1012.7
20260502215030 69 122 3.0 12.0 0.00 0.00 0.00 59 1012.8
20260502214551 69 72 2.0 12.0 0.00 0.00 0.00 60 1012.9
20260502214030 69 75 4.0 10.0 0.00 0.00 0.00 59 1013.0
20260502213528 70 246 3.0 7.0 0.00 0.00 0.00 58 1013.1
20260502213043 70 240 2.0 8.0 0.00 0.00 0.00 58 1013.1
20260502212528 70 140 2.0 8.0 0.00 0.00 0.00 60 1013.2
20260502212028 69 139 2.0 8.0 0.00 0.00 0.00 60 1013.2
20260502211536 69 122 3.0 8.0 0.00 0.00 0.00 60 1013.4
20260502211028 69 257 3.0 10.0 0.00 0.00 0.00 61 1013.4
20260502210527 69 150 2.0 10.0 0.00 0.00 0.00 61 1013.4
20260502210051 68 224 2.0 10.0 0.00 0.00 0.00 61 1013.6
20260502205528 68 122 2.0 10.0 0.00 0.00 0.00 62 1013.6
20260502205028 68 110 4.0 8.0 0.00 0.00 0.00 62 1013.6
20260502204543 68 226 1.0 8.0 0.00 0.00 0.00 62 1013.8
20260502204030 68 148 2.0 8.0 0.00 0.00 0.00 62 1013.8
20260502203528 68 95 2.0 8.0 0.00 0.00 0.00 63 1013.9
20260502203055 67 129 2.0 8.0 0.00 0.00 0.00 64 1014.0
20260502202530 67 143 2.0 7.0 0.00 0.00 0.00 63 1014.1
20260502202028 67 134 2.0 7.0 0.00 0.00 0.00 64 1014.0
20260502201547 67 120 2.0 7.0 0.00 0.00 0.00 65 1014.1
20260502201028 66 252 1.0 5.0 0.00 0.00 0.00 67 1014.2
20260502200528 66 134 1.0 8.0 0.00 0.00 0.00 67 1014.3
20260502200042 66 141 3.0 8.0 0.00 0.00 0.00 66 1014.4
20260502195528 66 141 1.0 6.0 0.00 0.00 0.00 67 1014.4
20260502195027 65 245 1.0 8.0 0.00 0.00 0.00 69 1014.5
20260502194543 65 257 2.0 8.0 0.00 0.00 0.00 69 1014.6
20260502194028 65 132 3.0 8.0 0.00 0.00 0.00 68 1014.7
20260502193528 65 136 2.0 10.0 0.00 0.00 0.00 70 1014.8
20260502193049 65 197 2.0 10.0 0.00 0.00 0.00 69 1015.0
20260502192528 65 243 2.0 8.0 0.00 0.00 0.00 69 1015.0
20260502192028 65 165 1.0 9.0 0.00 0.00 0.00 71 1015.1
20260502191542 65 123 3.0 10.0 0.00 0.00 0.00 69 1015.1
20260502191027 64 288 2.0 11.0 0.00 0.00 0.00 72 1015.1
20260502190528 64 123 3.0 11.0 0.00 0.00 0.00 72 1015.2
20260502190059 64 144 3.0 11.0 0.00 0.00 0.00 71 1015.3
20260502185529 64 150 2.0 8.0 0.00 0.00 0.00 72 1015.3
20260502185028 64 214 2.0 7.0 0.00 0.00 0.00 73 1015.3
20260502184540 63 271 2.0 7.0 0.00 0.00 0.00 75 1015.3
20260502184028 62 323 2.0 8.0 0.00 0.00 0.00 76 1015.3
20260502183527 62 170 2.0 8.0 0.00 0.00 0.00 78 1015.3
20260502183039 61 135 1.0 7.0 0.00 0.00 0.00 80 1015.3
20260502182531 60 242 1.0 7.0 0.00 0.00 0.00 80 1015.4
20260502182028 60 134 2.0 8.0 0.00 0.00 0.00 81 1015.4
20260502181543 60 174 2.0 8.0 0.00 0.00 0.00 80 1015.5
20260502181026 60 137 0.0 4.0 0.00 0.00 0.00 81 1015.5
20260502180527 60 141 0.0 4.0 0.00 0.00 0.00 82 1015.6
20260502164028 55 0 1.0 3.0 0.00 0.00 0.00 89 1015.3
20260502163528 55 0 0.0 3.0 0.00 0.00 0.00 90 1015.3
20260502163045 55 0 0.0 2.0 0.00 0.00 0.00 91 1015.3
20260502162532 54 237 0.0 2.0 0.00 0.00 0.00 90 1015.4
20260502162029 54 0 0.0 2.0 0.00 0.00 0.00 91 1015.4
20260502161550 54 0 0.0 2.0 0.00 0.00 0.00 91 1015.4
20260502161032 54 325 1.0 2.0 0.00 0.00 0.00 91 1015.4
20260502160532 54 0 0.0 0.0 0.00 0.00 0.00 92 1015.4
20260502152028 52 256 0.0 1.0 0.00 0.00 0.00 95 1015.2
20260502151546 52 0 0.0 1.0 0.00 0.00 0.00 95 1015.2
20260502151028 52 0 0.0 1.0 0.00 0.00 0.00 95 1015.1
20260502150528 52 0 0.0 0.0 0.00 0.00 0.00 95 1015.1
20260502130530 50 0 0.0 0.0 0.00 0.00 0.00 96 1014.4
20260502123528 49 0 0.0 0.0 0.00 0.00 0.00 96 1014.3
20260502123044 49 0 0.0 0.0 0.00 0.00 0.00 96 1014.2
20260502122528 49 0 0.0 0.0 0.00 0.00 0.00 96 1014.1
20260502122029 49 0 0.0 0.0 0.00 0.00 0.00 96 1014.0
20260502121544 49 0 0.0 0.0 0.00 0.00 0.00 96 1014.0
20260502121028 49 0 0.0 0.0 0.00 0.00 0.00 96 1014.0
20260502120529 49 0 0.0 1.0 0.00 0.00 0.00 96 1014.0
20260502115528 49 0 0.0 0.0 0.00 0.00 0.00 96 1014.1
20260502115029 48 0 0.0 0.0 0.00 0.00 0.00 96 1014.0
20260502114558 48 0 0.0 0.0 0.00 0.00 0.00 96 1014.0
20260502114029 48 0 0.0 0.0 0.00 0.00 0.00 96 1014.0
20260502113529 48 0 0.0 0.0 0.00 0.00 0.00 96 1014.1
20260502113045 48 0 0.0 0.0 0.00 0.00 0.00 96 1014.1
20260502112527 47 0 0.0 0.0 0.00 0.00 0.00 96 1014.0
20260502112027 47 0 0.0 0.0 0.00 0.00 0.00 96 1014.1
20260502111545 47 0 0.0 0.0 0.00 0.00 0.00 96 1014.1
20260502111027 46 0 0.0 0.0 0.00 0.00 0.00 95 1014.0
20260502110527 46 0 0.0 0.0 0.00 0.00 0.00 95 1014.0
20260502110045 46 0 0.0 0.0 0.00 0.00 0.00 95 1014.0
20260502105532 46 0 0.0 0.0 0.00 0.00 0.00 95 1014.0
20260502105029 46 0 0.0 0.0 0.00 0.00 0.00 95 1014.0
20260502104541 46 0 0.0 0.0 0.00 0.00 0.00 95 1014.0
20260502104028 46 0 0.0 0.0 0.00 0.00 0.00 95 1013.9
20260502103528 46 0 0.0 0.0 0.00 0.00 0.00 95 1013.8
20260502103044 46 0 0.0 0.0 0.00 0.00 0.00 95 1013.9
20260502102529 46 0 0.0 0.0 0.00 0.00 0.00 95 1013.8
20260502102028 46 0 0.0 0.0 0.00 0.00 0.00 95 1013.7
20260502101559 46 0 0.0 0.0 0.00 0.00 0.00 95 1013.7
20260502101027 46 0 0.0 0.0 0.00 0.00 0.00 95 1013.7
20260502100527 46 0 0.0 0.0 0.00 0.00 0.00 95 1013.8
20260502091029 47 0 0.0 0.0 0.00 0.00 0.00 94 1014.2
20260502090527 47 0 0.0 0.0 0.00 0.00 0.00 94 1014.2
20260502071028 49 0 0.0 0.0 0.00 0.00 0.00 93 1015.0
20260502070528 49 0 0.0 0.0 0.00 0.00 0.00 93 1014.9
20260502070047 50 0 0.0 0.0 0.00 0.00 0.00 93 1014.9
20260502065529 50 0 0.0 0.0 0.00 0.00 0.00 93 1014.9
20260502065027 50 0 0.0 0.0 0.00 0.00 0.00 93 1015.0
20260502064611 50 0 0.0 0.0 0.00 0.00 0.00 92 1015.0
20260502064028 50 0 0.0 0.0 0.00 0.00 0.00 92 1015.0
20260502063527 51 0 0.0 0.0 0.00 0.00 0.00 92 1015.0
20260502063050 51 0 0.0 0.0 0.00 0.00 0.00 92 1015.1
20260502062529 51 0 0.0 0.0 0.00 0.00 0.00 93 1015.1
20260502062028 51 0 0.0 0.0 0.00 0.00 0.00 93 1015.2
20260502061536 51 0 0.0 0.0 0.00 0.00 0.00 92 1015.1
20260502061028 51 0 0.0 0.0 0.00 0.00 0.00 92 1015.1
20260502060528 51 0 0.0 0.0 0.00 0.00 0.00 92 1015.1
20260502060047 51 0 0.0 0.0 0.00 0.00 0.00 91 1015.1
20260502055528 51 0 0.0 0.0 0.00 0.00 0.00 91 1015.2
20260502055028 51 0 0.0 0.0 0.00 0.00 0.00 91 1015.2
20260502054541 52 0 0.0 0.0 0.00 0.00 0.00 91 1015.2
20260502054027 52 0 0.0 0.0 0.00 0.00 0.00 91 1015.1
20260502053529 52 0 0.0 0.0 0.00 0.00 0.00 91 1015.1
20260502053041 52 0 0.0 0.0 0.00 0.00 0.00 90 1015.1
20260502052528 52 0 0.0 0.0 0.00 0.00 0.00 90 1015.1
20260502052028 52 0 0.0 0.0 0.00 0.00 0.00 90 1015.1
20260502051536 53 0 0.0 1.0 0.00 0.00 0.00 90 1015.1
20260502051030 53 0 0.0 1.0 0.00 0.00 0.00 90 1015.2
20260502050528 53 0 0.0 0.0 0.00 0.00 0.00 90 1015.2
20260502050037 53 0 0.0 0.0 0.00 0.00 0.00 90 1015.1
20260502045528 53 0 0.0 0.0 0.00 0.00 0.00 89 1015.1
20260502045028 53 0 0.0 1.0 0.00 0.00 0.00 89 1015.1
20260502044542 53 0 0.0 1.0 0.00 0.00 0.00 89 1015.1
20260502044028 53 239 0.0 3.0 0.00 0.00 0.00 89 1015.2
20260502043529 53 0 0.0 3.0 0.00 0.00 0.00 89 1015.1
20260502043107 54 358 0.0 3.0 0.00 0.00 0.00 89 1015.2
20260502042528 54 0 0.0 4.0 0.00 0.00 0.00 88 1015.1
20260502042028 54 0 0.0 4.0 0.00 0.00 0.00 88 1015.1
20260502041548 54 155 0.0 6.0 0.00 0.00 0.00 88 1015.0
20260502041030 54 0 1.0 6.0 0.00 0.00 0.00 87 1014.9
20260502040531 54 150 1.0 5.0 0.00 0.00 0.00 87 1014.7
20260502040040 54 297 1.0 5.0 0.00 0.00 0.00 87 1014.5
20260502035528 55 269 1.0 5.0 0.00 0.00 0.00 86 1014.4
20260502035028 55 224 0.0 4.0 0.00 0.00 0.00 86 1014.3
20260502034544 55 311 0.0 4.0 0.00 0.00 0.00 86 1014.2
20260502034028 55 264 1.0 7.0 0.00 0.00 0.00 85 1014.2
20260502033528 55 132 1.0 7.0 0.00 0.00 0.00 85 1014.1
20260502033041 55 134 1.0 8.0 0.00 0.00 0.00 85 1014.1
20260502032527 56 188 2.0 8.0 0.00 0.00 0.00 84 1014.0
20260502032028 56 172 2.0 8.0 0.00 0.00 0.00 84 1014.0
20260502031542 56 143 2.0 8.0 0.00 0.00 0.00 83 1013.9
20260502031028 57 125 2.0 6.0 0.00 0.00 0.00 82 1013.9
20260502030528 57 188 1.0 5.0 0.00 0.00 0.00 81 1013.9
20260502030046 57 222 2.0 5.0 0.00 0.00 0.00 80 1013.8
20260502025528 58 153 1.0 6.0 0.00 0.00 0.00 79 1013.6
20260502025030 58 115 1.0 6.0 0.00 0.00 0.00 78 1013.5
20260502024544 58 187 1.0 6.0 0.00 0.00 0.00 77 1013.3
20260502024028 59 205 1.0 7.0 0.00 0.00 0.00 77 1013.2
20260502023528 59 141 2.0 7.0 0.00 0.00 0.00 76 1013.1
20260502023043 60 137 1.0 4.0 0.00 0.00 0.00 75 1013.0
20260502022528 60 134 1.0 4.0 0.00 0.00 0.00 74 1013.0
20260502022030 61 123 1.0 5.0 0.00 0.00 0.00 74 1013.0
20260502021544 61 143 2.0 5.0 0.00 0.00 0.00 73 1012.9
20260502021028 61 126 2.0 6.0 0.00 0.00 0.00 72 1012.9
20260502020530 62 129 2.0 6.0 0.00 0.00 0.00 71 1012.7
20260502020043 62 127 2.0 6.0 0.00 0.00 0.00 70 1012.7
20260502015528 63 134 2.0 6.0 0.00 0.00 0.00 69 1012.7